Pittsfield, IL

1:23 AM CST on December 08, 2016 (GMT -0600)
Pittsfield Penstone Municipal

Weather History for KPPQ - January, 2006

Change the Weather History Date:

Wednesday, January 18, 2006

  Actual Average (KUIN) Record (KUIN)
Temperature  
Mean Temperature 33 °F 26 °F  
Max Temperature 42 °F 34 °F 64 °F (1951)
Min Temperature 24 °F 18 °F -16 °F (1930)
Degree Days  
Heating Degree Days 32 39  
Month to date heating degree days 698  
Since 1 July heating degree days 2889  
Cooling Degree Days 0 0  
Month to date cooling degree days 0  
Year to date cooling degree days 0  
Moisture  
Dew Point 21 °F    
Average Humidity 62    
Maximum Humidity 80    
Minimum Humidity 42    
Precipitation  
Precipitation 0.00 in 0.05 in 1.10 in (1996)
Month to date precipitation 0.91  
Year to date precipitation 0.91  
Sea Level Pressure  
Sea Level Pressure 29.88 in    
Wind  
Wind Speed 9 mph (WSW)    
Max Wind Speed 17 mph    
Max Gust Speed 23 mph    
Visibility 10 miles    
Events      
T = Trace of Precipitation, MM = Missing Value Source: NWS Daily Summary

Daily Weather History Graph

Daily Weather History Graph

Search for Another Location

Airport or City:

Trip Planner

Search our weather history database for the weather conditions in past years. The results will help you decide how hot, cold, wet, or windy it might be!

Date:

Astronomy

Jan. 18, 2006 Rise Set
Actual Time 7:20 AM CST 5:06 PM CST
Civil Twilight 6:51 AM CST 5:36 PM CST
Nautical Twilight 6:18 AM CST 6:09 PM CST
Astronomical Twilight 5:46 AM CST 6:41 PM CST
Moon 9:19 PM CST (1/18) 9:43 AM CST (1/18)
Length of Visible Light 10h 44m
Length of Day
9h 45m
Waning Gibbous, 84% of the Moon is Illuminated
Jan 18
Waning Gibbous
Jan 22
Last Quarter
Jan 29
New
Feb 5
First Quarter
Feb 12
Full

Hourly Weather History & Observations

Time (CST) Temp. Windchill Dew Point Humidity Pressure Visibility Wind Dir Wind Speed Gust Speed Precip Events Conditions
12:03 AM 28.4 °F 20.4 °F 17.6 °F 64% 29.75 in 10.0 mi West 8.1 mph 16.1 mph N/A   Overcast
12:23 AM 28.4 °F 21.2 °F 17.6 °F 64% 29.75 in 10.0 mi West 6.9 mph - N/A   Overcast
12:43 AM 28.4 °F 19.7 °F 17.6 °F 64% 29.76 in 10.0 mi West 9.2 mph - N/A   Overcast
1:05 AM 28.4 °F 19.7 °F 17.6 °F 64% 29.77 in 10.0 mi WNW 9.2 mph - N/A   Overcast
1:23 AM 28.4 °F 19.1 °F 17.6 °F 64% 29.78 in 10.0 mi West 10.4 mph 16.1 mph N/A   Overcast
1:43 AM 28.4 °F 18.5 °F 17.6 °F 64% 29.78 in 10.0 mi West 11.5 mph 19.6 mph N/A   Overcast
2:03 AM 28.4 °F 18.5 °F 17.6 °F 64% 29.79 in 10.0 mi West 11.5 mph 17.3 mph N/A   Overcast
2:23 AM 28.4 °F 16.2 °F 17.6 °F 64% 29.80 in 10.0 mi West 17.3 mph 23.0 mph N/A   Overcast
2:43 AM 28.4 °F 18.5 °F 17.6 °F 64% 29.81 in 10.0 mi West 11.5 mph 17.3 mph N/A   Overcast
3:03 AM 28.4 °F 20.4 °F 17.6 °F 64% 29.81 in 10.0 mi West 8.1 mph - N/A   Overcast
3:24 AM 28.4 °F 17.5 °F 17.6 °F 64% 29.82 in 10.0 mi West 13.8 mph 18.4 mph N/A   Overcast
3:43 AM 28.4 °F 18.0 °F 17.6 °F 64% 29.82 in 10.0 mi West 12.7 mph 23.0 mph N/A   Overcast
4:03 AM 28.4 °F 18.5 °F 17.6 °F 64% 29.83 in 10.0 mi West 11.5 mph 16.1 mph N/A   Overcast
4:23 AM 28.4 °F 20.4 °F 19.4 °F 69% 29.83 in 10.0 mi West 8.1 mph 17.3 mph N/A   Overcast
4:43 AM 28.4 °F 19.7 °F 19.4 °F 69% 29.83 in 10.0 mi West 9.2 mph - N/A   Overcast
5:03 AM 28.4 °F 19.1 °F 19.4 °F 69% 29.85 in 10.0 mi West 10.4 mph - N/A   Overcast
5:23 AM 28.4 °F 20.4 °F 19.4 °F 69% 29.86 in 10.0 mi West 8.1 mph - N/A   Mostly Cloudy
5:43 AM 28.4 °F 21.2 °F 19.4 °F 69% 29.86 in 10.0 mi West 6.9 mph - N/A   Scattered Clouds
6:03 AM 26.6 °F 20.0 °F 19.4 °F 74% 29.87 in 10.0 mi West 5.8 mph - N/A   Clear
6:24 AM 26.6 °F 20.0 °F 19.4 °F 74% 29.88 in 10.0 mi WSW 5.8 mph - N/A   Clear
6:43 AM 26.6 °F 20.0 °F 19.4 °F 74% 29.88 in 10.0 mi SW 5.8 mph - N/A   Clear
7:03 AM 26.6 °F 19.1 °F 19.4 °F 74% 29.89 in 10.0 mi WSW 6.9 mph - N/A   Clear
7:23 AM 24.8 °F 16.9 °F 19.4 °F 80% 29.91 in 10.0 mi WSW 6.9 mph - N/A   Clear
7:43 AM 24.8 °F 16.9 °F 19.4 °F 80% 29.92 in 10.0 mi WSW 6.9 mph - N/A   Clear
8:03 AM 24.8 °F 16.1 °F 19.4 °F 80% 29.93 in 10.0 mi WSW 8.1 mph - N/A   Clear
8:23 AM 26.6 °F 18.2 °F 19.4 °F 74% 29.94 in 10.0 mi WSW 8.1 mph - N/A   Clear
8:43 AM 26.6 °F 18.2 °F 19.4 °F 74% 29.95 in 10.0 mi WSW 8.1 mph - N/A   Clear
9:03 AM 28.4 °F 20.4 °F 21.2 °F 74% 29.95 in 10.0 mi WSW 8.1 mph - N/A   Clear
9:23 AM 28.4 °F 20.4 °F 21.2 °F 74% 29.95 in 10.0 mi WSW 8.1 mph - N/A   Clear
9:43 AM 30.2 °F 23.4 °F 21.2 °F 69% 29.96 in 10.0 mi WSW 6.9 mph - N/A   Clear
10:03 AM 32.0 °F 24.2 °F 21.2 °F 64% 29.96 in 10.0 mi WSW 9.2 mph - N/A   Clear
10:23 AM 33.8 °F 26.4 °F 21.2 °F 60% 29.96 in 10.0 mi WSW 9.2 mph - N/A   Clear
10:44 AM 33.8 °F 27.0 °F 21.2 °F 60% 29.96 in 10.0 mi SW 8.1 mph - N/A   Clear
11:03 AM 35.6 °F 28.6 °F 21.2 °F 56% 29.95 in 10.0 mi SW 9.2 mph - N/A   Clear
11:23 AM 35.6 °F 28.6 °F 21.2 °F 56% 29.95 in 10.0 mi SW 9.2 mph - N/A   Clear
11:43 AM 37.4 °F 32.8 °F 21.2 °F 52% 29.94 in 10.0 mi SW 5.8 mph - N/A   Clear
12:03 PM 37.4 °F 32.1 °F 21.2 °F 52% 29.93 in 10.0 mi WSW 6.9 mph - N/A   Clear
12:23 PM 39.2 °F 32.0 °F 23.0 °F 52% 29.93 in 10.0 mi WSW 11.5 mph - N/A   Clear
12:43 PM 41.0 °F 34.7 °F 23.0 °F 49% 29.92 in 10.0 mi WSW 10.4 mph - N/A   Clear
1:03 PM 42.8 °F 37.0 °F 21.2 °F 42% 29.91 in 10.0 mi South 10.4 mph - N/A   Clear
1:23 PM 42.8 °F 36.6 °F 23.0 °F 46% 29.91 in 10.0 mi WSW 11.5 mph - N/A   Clear
1:43 PM 42.8 °F 37.0 °F 21.2 °F 42% 29.90 in 10.0 mi WSW 10.4 mph 17.3 mph N/A   Clear
2:03 PM 42.8 °F 36.6 °F 23.0 °F 46% 29.89 in 10.0 mi SSE 11.5 mph - N/A   Clear
2:23 PM 42.8 °F 37.5 °F 23.0 °F 46% 29.90 in 10.0 mi SSE 9.2 mph - N/A   Clear
2:43 PM 42.8 °F 36.2 °F 23.0 °F 46% 29.90 in 10.0 mi South 12.7 mph - N/A   Scattered Clouds
3:03 PM 42.8 °F 35.8 °F 23.0 °F 46% 29.90 in 10.0 mi South 13.8 mph 17.3 mph N/A   Clear
3:23 PM 42.8 °F 37.0 °F 23.0 °F 46% 29.91 in 10.0 mi East 10.4 mph - N/A   Scattered Clouds
4:05 PM 42.8 °F 37.5 °F 24.8 °F 49% 29.90 in 10.0 mi East 9.2 mph - N/A   Clear
4:23 PM 42.8 °F 37.5 °F 26.6 °F 53% 29.90 in 10.0 mi East 9.2 mph - N/A   Clear
4:43 PM 42.8 °F 38.0 °F 26.6 °F 53% 29.89 in 10.0 mi East 8.1 mph - N/A   Clear
5:03 PM 41.0 °F 35.8 °F 26.6 °F 57% 29.89 in 10.0 mi East 8.1 mph - N/A   Clear
5:23 PM 39.2 °F 34.2 °F 26.6 °F 61% 29.89 in 10.0 mi East 6.9 mph - N/A   Clear
5:43 PM 39.2 °F 33.6 °F 26.6 °F 61% 29.89 in 10.0 mi East 8.1 mph - N/A   Clear
6:04 PM 39.2 °F 33.6 °F 26.6 °F 61% 29.89 in 10.0 mi East 8.1 mph - N/A   Clear
6:23 PM 39.2 °F 33.6 °F 26.6 °F 61% 29.89 in 10.0 mi East 8.1 mph - N/A   Clear
6:43 PM 39.2 °F 32.5 °F 26.6 °F 61% 29.89 in 10.0 mi East 10.4 mph - N/A   Clear
7:03 PM 39.2 °F 32.0 °F 26.6 °F 61% 29.89 in 10.0 mi East 11.5 mph - N/A   Clear
7:23 PM 39.2 °F 33.0 °F 26.6 °F 61% 29.89 in 10.0 mi East 9.2 mph - N/A   Clear
7:43 PM 39.2 °F 33.6 °F 26.6 °F 61% 29.88 in 10.0 mi ESE 8.1 mph - N/A   Clear
8:04 PM 39.2 °F 33.0 °F 26.6 °F 61% 29.88 in 10.0 mi East 9.2 mph - N/A   Clear
8:23 PM 39.2 °F 33.0 °F 26.6 °F 61% 29.87 in 10.0 mi East 9.2 mph - N/A   Clear
8:43 PM 39.2 °F 32.0 °F 26.6 °F 61% 29.87 in 10.0 mi East 11.5 mph - N/A   Clear
9:03 PM 39.2 °F 32.0 °F 26.6 °F 61% 29.87 in 10.0 mi East 11.5 mph - N/A   Clear
9:23 PM 39.2 °F 32.0 °F 26.6 °F 61% 29.86 in 10.0 mi East 11.5 mph - N/A   Clear
9:43 PM 39.2 °F 32.5 °F 26.6 °F 61% 29.86 in 10.0 mi East 10.4 mph - N/A   Clear
10:03 PM 39.2 °F 32.5 °F 26.6 °F 61% 29.86 in 10.0 mi East 10.4 mph - N/A   Clear
10:23 PM 39.2 °F 32.5 °F 26.6 °F 61% 29.86 in 10.0 mi East 10.4 mph - N/A   Clear
10:43 PM 44.6 °F 38.1 °F 26.6 °F 49% 29.86 in 10.0 mi ESE 13.8 mph 18.4 mph N/A   Clear
11:03 PM 44.6 °F 37.8 °F 26.6 °F 49% 29.86 in 10.0 mi SSE 15.0 mph - N/A   Clear
11:23 PM 44.6 °F 37.8 °F 26.6 °F 49% 29.85 in 10.0 mi SSE 15.0 mph 21.9 mph N/A   Clear
11:43 PM 44.6 °F 38.1 °F 28.4 °F 53% 29.85 in 10.0 mi SSE 13.8 mph 20.7 mph N/A   Clear